Hourly Weather Bіlozіrka (Barmashove)

Today, 8 May, Saturday

Time Temperature Precipitation Wind Pressure Humidity
00:00 +14°C° 0 mm 6 mps 752 mmHg 69%
01:00 +14°C° 0 mm 6 mps 752 mmHg 71%
02:00 +13°C° 0 mm 6 mps 751 mmHg 75%
03:00 +13°C° 0 mm 6 mps 751 mmHg 77%
04:00 +13°C° 0 mm 6 mps 751 mmHg 79%
05:00 +14°C° 0 mm 6 mps 750 mmHg 81%
06:00 +14°C° 0.2 mm 6 mps 751 mmHg 81%
07:00 +14°C° 0.2 mm 6 mps 751 mmHg 82%
08:00 +15°C° 0 mm 6 mps 751 mmHg 80%
09:00 +14°C° 1.7 mm 6 mps 751 mmHg 82%
10:00 +14°C° 1.7 mm 6 mps 751 mmHg 84%
11:00 +13°C° 1.7 mm 6 mps 752 mmHg 87%
12:00 +13°C° 0.4 mm 6 mps 752 mmHg 83%
13:00 +13°C° 0.4 mm 6 mps 753 mmHg 79%
14:00 +12°C° 0.4 mm 7 mps 753 mmHg 75%
15:00 +11°C° 0 mm 7 mps 753 mmHg 72%
16:00 +11°C° 0 mm 7 mps 754 mmHg 68%
17:00 +11°C° 0 mm 7 mps 754 mmHg 64%
18:00 +10°C° 0 mm 7 mps 755 mmHg 63%
19:00 +10°C° 0 mm 7 mps 755 mmHg 63%
20:00 +9°C° 0 mm 7 mps 756 mmHg 62%
21:00 +8°C° 0 mm 6 mps 756 mmHg 66%
22:00 +7°C° 0 mm 6 mps 757 mmHg 70%
23:00 +6°C° 0 mm 5 mps 757 mmHg 73%

Tomorrow, 9 May, Sunday

Time Temperature Precipitation Wind Pressure Humidity
00:00 +5°C° 0 mm 5 mps 758 mmHg 76%
01:00 +5°C° 0 mm 5 mps 758 mmHg 79%
02:00 +4°C° 0 mm 4 mps 759 mmHg 82%
03:00 +4°C° 0 mm 4 mps 759 mmHg 82%
04:00 +4°C° 0 mm 4 mps 760 mmHg 82%
05:00 +3°C° 0 mm 4 mps 760 mmHg 83%
06:00 +5°C° 0 mm 5 mps 761 mmHg 74%
07:00 +7°C° 0 mm 6 mps 761 mmHg 65%
08:00 +8°C° 0 mm 6 mps 762 mmHg 56%
09:00 +10°C° 0 mm 6 mps 762 mmHg 51%
10:00 +11°C° 0 mm 6 mps 762 mmHg 46%
11:00 +13°C° 0 mm 6 mps 762 mmHg 40%
12:00 +14°C° 0 mm 6 mps 762 mmHg 39%
13:00 +14°C° 0 mm 6 mps 762 mmHg 37%
14:00 +15°C° 0 mm 6 mps 762 mmHg 35%
15:00 +15°C° 0 mm 5 mps 763 mmHg 37%
16:00 +15°C° 0 mm 5 mps 763 mmHg 38%
17:00 +15°C° 0 mm 5 mps 763 mmHg 40%
18:00 +13°C° 0 mm 4 mps 763 mmHg 45%
19:00 +11°C° 0 mm 3 mps 764 mmHg 51%
20:00 +9°C° 0 mm 2 mps 764 mmHg 57%
21:00 +9°C° 0 mm 2 mps 765 mmHg 59%
22:00 +8°C° 0 mm 2 mps 765 mmHg 61%
23:00 +9°C° 0 mm 1 mps 765 mmHg 64%

Day after tomorrow, 10 May, Monday

Time Temperature Precipitation Wind Pressure Humidity
00:00 +8°C° 0 mm 1 mps 765 mmHg 65%
01:00 +8°C° 0 mm 1 mps 765 mmHg 67%
02:00 +7°C° 0 mm 1 mps 765 mmHg 69%
03:00 +7°C° 0 mm 1 mps 765 mmHg 71%
04:00 +6°C° 0 mm 2 mps 765 mmHg 72%
05:00 +6°C° 0 mm 2 mps 765 mmHg 74%
06:00 +8°C° 0 mm 2 mps 765 mmHg 67%
07:00 +10°C° 0 mm 2 mps 766 mmHg 60%
08:00 +12°C° 0 mm 3 mps 766 mmHg 53%
09:00 +13°C° 0 mm 3 mps 765 mmHg 48%
10:00 +14°C° 0 mm 3 mps 765 mmHg 43%
11:00 +16°C° 0 mm 3 mps 765 mmHg 38%
12:00 +17°C° 0 mm 4 mps 765 mmHg 36%
13:00 +17°C° 0 mm 4 mps 764 mmHg 35%
14:00 +18°C° 0 mm 4 mps 764 mmHg 34%
15:00 +18°C° 0 mm 4 mps 763 mmHg 35%
16:00 +17°C° 0 mm 4 mps 763 mmHg 36%
17:00 +17°C° 0 mm 4 mps 763 mmHg 37%
18:00 +14°C° 0 mm 4 mps 763 mmHg 43%
19:00 +12°C° 0 mm 4 mps 763 mmHg 49%
20:00 +10°C° 0 mm 3 mps 763 mmHg 55%
21:00 +10°C° 0 mm 3 mps 763 mmHg 57%
22:00 +9°C° 0 mm 3 mps 762 mmHg 59%
23:00 +9°C° 0 mm 3 mps 762 mmHg 61%

11 May, Tuesday

Time Temperature Precipitation Wind Pressure Humidity
00:00 +8°C° 0 mm 3 mps 762 mmHg 65%
01:00 +7°C° 0 mm 4 mps 762 mmHg 68%
02:00 +6°C° 0 mm 4 mps 761 mmHg 72%
03:00 +6°C° 0 mm 4 mps 761 mmHg 73%
04:00 +6°C° 0 mm 4 mps 760 mmHg 74%
05:00 +6°C° 0 mm 5 mps 760 mmHg 75%
06:00 +8°C° 0 mm 5 mps 760 mmHg 70%
07:00 +9°C° 0 mm 6 mps 759 mmHg 64%
08:00 +11°C° 0 mm 6 mps 759 mmHg 59%
09:00 +13°C° 0 mm 6 mps 759 mmHg 58%
10:00 +15°C° 0 mm 6 mps 758 mmHg 57%
11:00 +16°C° 0 mm 5 mps 758 mmHg 56%
12:00 +17°C° 0 mm 6 mps 758 mmHg 58%
13:00 +17°C° 0 mm 6 mps 757 mmHg 59%
14:00 +17°C° 0 mm 7 mps 757 mmHg 60%
15:00 +16°C° 0 mm 6 mps 757 mmHg 64%
16:00 +14°C° 0 mm 5 mps 757 mmHg 68%
17:00 +13°C° 0 mm 4 mps 757 mmHg 72%
18:00 +12°C° 0 mm 4 mps 757 mmHg 73%
19:00 +11°C° 0 mm 4 mps 757 mmHg 74%
20:00 +11°C° 0 mm 4 mps 757 mmHg 76%
21:00 +8°C° 0 mm 4 mps 757 mmHg 77%
22:00 +8°C° 0 mm 3 mps 756 mmHg 79%
23:00 +7°C° 0 mm 3 mps 756 mmHg 81%

12 May, Wednesday

Time Temperature Precipitation Wind Pressure Humidity
00:00 +7°C° 0 mm 3 mps 756 mmHg 83%
01:00 +7°C° 0 mm 3 mps 755 mmHg 85%
02:00 +5°C° 0 mm 3 mps 755 mmHg 87%
03:00 +7°C° 0 mm 3 mps 755 mmHg 86%
04:00 +7°C° 0 mm 3 mps 754 mmHg 84%
05:00 +8°C° 0 mm 3 mps 754 mmHg 83%
06:00 +8°C° 0 mm 3 mps 754 mmHg 79%
07:00 +9°C° 0 mm 3 mps 754 mmHg 75%
08:00 +9°C° 0 mm 3 mps 754 mmHg 71%
09:00 +10°C° 0 mm 3 mps 754 mmHg 68%
10:00 +10°C° 0 mm 2 mps 754 mmHg 66%
11:00 +12°C° 0 mm 2 mps 754 mmHg 64%
12:00 +12°C° 0 mm 2 mps 754 mmHg 60%
13:00 +13°C° 0 mm 2 mps 754 mmHg 57%
14:00 +14°C° 0 mm 2 mps 754 mmHg 53%
15:00 +14°C° 0 mm 2 mps 754 mmHg 53%
16:00 +15°C° 0 mm 1 mps 754 mmHg 52%
17:00 +15°C° 0 mm 1 mps 754 mmHg 52%
18:00 +14°C° 0 mm 1 mps 754 mmHg 56%
19:00 +13°C° 0 mm 1 mps 754 mmHg 60%
20:00 +12°C° 0 mm 1 mps 754 mmHg 63%
21:00 +11°C° 0 mm 1 mps 754 mmHg 67%
22:00 +10°C° 0 mm 1 mps 753 mmHg 70%
23:00 +9°C° 0 mm 1 mps 753 mmHg 73%

13 May, Thursday

Time Temperature Precipitation Wind Pressure Humidity
00:00 +8°C° 0 mm 2 mps 753 mmHg 75%
01:00 +7°C° 0 mm 2 mps 753 mmHg 76%
02:00 +7°C° 0 mm 2 mps 753 mmHg 78%
03:00 +7°C° 0 mm 2 mps 753 mmHg 79%
04:00 +7°C° 0 mm 2 mps 753 mmHg 80%
05:00 +7°C° 0 mm 3 mps 753 mmHg 81%
06:00 +10°C° 0 mm 3 mps 753 mmHg 77%
07:00 +12°C° 0 mm 4 mps 753 mmHg 73%
08:00 +15°C° 0 mm 5 mps 752 mmHg 68%
09:00 +16°C° 0 mm 5 mps 752 mmHg 60%
10:00 +19°C° 0 mm 5 mps 752 mmHg 52%
11:00 +21°C° 0 mm 6 mps 752 mmHg 44%
12:00 +21°C° 0 mm 6 mps 752 mmHg 44%
13:00 +21°C° 0 mm 6 mps 751 mmHg 43%
14:00 +22°C° 0 mm 6 mps 751 mmHg 43%
15:00 +21°C° 0 mm 5 mps 751 mmHg 45%
16:00 +21°C° 0 mm 5 mps 751 mmHg 47%
17:00 +20°C° 0 mm 5 mps 752 mmHg 49%
18:00 +18°C° 0 mm 4 mps 752 mmHg 58%
19:00 +16°C° 0 mm 3 mps 752 mmHg 68%
20:00 +13°C° 0 mm 2 mps 752 mmHg 77%
21:00 +13°C° 0 mm 2 mps 752 mmHg 79%
22:00 +12°C° 0 mm 2 mps 752 mmHg 82%
23:00 +12°C° 0 mm 2 mps 752 mmHg 84%
Show more